Terminal Aerodrome Forecast
Issued by NWS Wilmington, NC

Home | Current Version | Previous Version | Text Only | Print | Product List | Glossary On
Versions: 1 2 3 4 5 6 7 8 9 10 11 12 13 14 15 16 17 18 19 20 21 22 23
493
FTUS42 KILM 221136 CCA
TAFLBT
TAF COR
KLBT 221136Z 2212/2312 23006KT 6SM -RA SCT025 OVC080
      TEMPO 2212/2214 5SM -RA BR SCT007 BKN025
     FM221400 13005KT 3SM -RA BR BKN006 OVC025
     FM221800 17007KT P6SM VCSH SCT006 BKN012 BKN080
     FM222100 14005KT 4SM -SHRA BR SCT010 OVC025
     FM222300 14014G20KT 5SM -TSRA BR BKN020CB OVC030
      TEMPO 2300/2304 VRB30G45KT 1SM +TSRA BR BKN007 OVC015CB
     FM230500 22013G19KT 6SM -SHRA SCT015 BKN025=

USA.gov is the U.S. government's official web portal to all federal, state and local government web resources and services.